Oshawa Airport
CYOO : now visible

Airfield :











YOU CAN JOIN US ON...

 
LOGIN :

Register | Disclaimer

   EN    FR    IT 

 









Legend :    VFR   Marginal VFR   IFR   Intensive IFR   Very Intensive IFR
Visi :
Ceiling :
>= 8 km
>= 3000ft
5 to 8 km
1000 to 3000 ft
1500m to 5 km
500 to 1000 ft
800 to 1500m
200 to 500 ft
< 800m
< 200 ft
Symbols :   Thunderstorms  Fog  Heavy snow  Heavy precipitations  Wind > 20 kt






- Airport Elevation : 459 ft
- IATA code : YOO


CYOO - Oshawa

CURRENT METAR :
  • 061800Z AUTO 35005KT 9SM OVC029 M02/M06 A3026 RMK SLP256

EXPIRED METARs :
  • 061700Z AUTO 34011KT 9SM OVC029 M02/M06 A3026 RMK SLP256
  • 061600Z AUTO 32009KT 9SM OVC029 M02/M06 A3026 RMK SLP257

TAF AMD TAF CYOO
Valid from the 06 at 14:00 until the 07 at 02:00 UTC


061422Z 0614/0702 33012KT P6SM BKN020
TEMPO 0614/0616 SCT020
FM061600 34010G20KT P6SM FEW030
BECMG 0620/0622 06005KT
FM062200 06005KT P6SM SCT020
TEMPO 0622/0702 BKN020 RMK FCST BASED ON AUTO OBS. NXT FCST BY 062000Z
CZYZ FIR / North America



MET'MAP, your aeronautical weather chart ! - Copyright ORBIFLY December 2007 - Disclaimer

ORBIFLY MET'MAP TEAM :

Programming & Development : Alexandra Zaïnal
Original concept : Baudouin d'Aumeries
Technical & hardware support : Manuel Goepfert
Assistance : Marc-Olivier Méhu




SOURCES & CREDITS :

   NOAA       Earth
Advisory